Wind_Speed
42 43 44 44 43 43 43 43 44 45 44 43 42 41 40 39 37 36 35 36 36 35 34 33 33 33 33 33 33 33 32 32 31 31 30 28 27 26 26 26 26 26 26 27 28 28 29 30 32 33 33 33 34 33 32 34 36 38 34 28 28 31 31 30 28 28 30 31 30 30 32 32 32 33 35 36 38 40 39 37 36 36 34 33 33
39 39 39 38 37 37 37 38 39 39 38 37 36 34 33 32 31 30 30 31 32 32 31 31 30 30 30 30 30 30 30 30 29 29 28 27 26 25 24 24 24 25 26 27 28 29 30 31 32 33 33 33 34 35 34 35 38 39 36 31 29 33 34 32 31 30 31 32 32 33 33 33 34 35 36 37 37 39 41 38 37 38 39 39 39
37 37 36 36 36 35 35 36 36 36 34 33 32 29 27 27 27 27 27 28 28 29 29 29 28 28 28 28 28 28 28 28 28 28 27 26 25 24 23 23 23 24 25 26 28 29 31 32 33 34 34 34 34 35 36 36 38 38 36 32 30 33 35 34 34 34 33 34 34 34 35 35 36 37 37 38 37 38 40 39 38 39 41 42 42
38 37 36 36 36 36 35 35 34 34 32 29 27 25 24 25 26 26 25 26 26 26 26 26 27 27 27 26 25 25 26 26 27 26 26 25 23 22 22 22 23 23 25 26 28 30 31 32 34 35 35 35 34 35 38 39 39 40 38 35 33 34 35 35 36 37 37 36 36 36 37 37 38 39 38 38 38 37 38 40 39 39 40 42 43
41 40 38 37 37 35 34 33 33 32 29 26 24 22 22 24 25 25 25 25 25 25 24 24 25 25 25 24 23 23 23 24 24 24 24 23 22 22 22 23 23 24 25 27 28 30 32 33 34 35 36 36 35 35 39 42 42 42 41 39 36 37 37 36 37 40 40 39 39 39 40 39 39 40 39 38 39 37 37 40 40 40 40 41 42
43 42 40 39 37 36 34 33 33 32 29 25 23 21 22 23 25 26 24 24 24 23 23 23 24 24 23 23 23 22 22 23 23 23 23 23 23 23 23 24 25 26 27 28 29 31 33 34 35 35 36 36 35 35 38 43 45 45 45 43 40 40 41 39 39 41 41 41 42 44 44 42 41 41 39 38 39 39 38 39 41 42 42 43 44
45 44 43 41 40 38 38 37 36 34 31 28 25 24 24 24 26 26 25 23 24 23 23 24 24 23 23 23 24 23 23 24 24 24 24 24 24 24 25 25 26 27 28 29 30 32 34 34 35 35 35 35 35 34 37 43 48 48 47 46 44 43 43 41 41 42 43 41 43 46 47 45 43 42 41 40 40 40 41 41 43 45 45 46 46
48 47 45 44 43 42 41 40 39 36 34 32 29 28 28 27 27 28 26 25 24 24 24 25 24 24 24 25 25 25 26 26 26 25 26 25 25 25 26 26 27 28 29 30 30 32 34 35 35 35 35 34 35 34 35 41 47 49 49 49 47 46 46 44 42 43 43 42 43 46 48 47 47 45 42 41 41 41 42 44 45 47 48 49 49
51 49 47 46 45 45 43 42 41 39 38 36 34 32 32 32 30 29 29 28 26 25 26 26 26 25 26 26 26 27 28 28 28 27 27 27 27 27 27 27 28 29 30 30 31 33 34 35 35 35 35 35 35 35 35 38 45 49 50 50 50 50 49 47 45 45 45 44 43 45 46 47 47 47 45 43 42 43 43 45 46 47 48 48 49
52 51 50 48 47 47 46 45 43 42 42 40 37 36 36 36 34 33 32 32 30 29 29 29 28 28 29 29 29 29 29 29 29 29 29 29 29 29 28 28 28 29 30 31 32 33 35 35 36 35 35 36 36 36 36 37 41 47 50 51 51 53 53 51 48 46 46 46 45 45 46 46 45 45 45 45 45 45 45 46 46 47 46 47 48
52 53 52 50 49 48 48 47 46 46 45 43 41 39 39 39 38 37 36 35 34 32 32 32 32 32 33 33 33 32 32 32 31 31 30 30 30 30 30 30 29 29 30 32 32 33 35 36 36 36 36 36 36 36 37 38 40 44 49 52 53 54 56 56 53 50 49 50 49 47 46 48 47 44 43 44 46 47 48 48 48 48 48 48 48
52 53 52 51 50 50 49 49 48 48 47 46 45 43 43 43 42 41 40 39 37 35 35 36 36 35 36 36 36 36 35 35 35 34 33 32 31 31 31 31 31 30 30 32 33 34 35 36 37 37 37 37 37 37 38 38 39 42 46 50 53 55 56 58 58 55 51 51 54 53 50 49 51 49 46 44 45 47 49 50 50 50 50 50 49
51 52 52 52 51 51 51 50 49 49 49 48 47 46 47 47 45 45 44 42 41 39 38 38 38 38 39 39 39 39 38 38 38 38 37 36 35 33 32 32 32 32 31 32 33 35 36 37 38 38 38 38 38 38 39 39 40 41 44 47 51 54 56 58 60 60 56 52 52 55 56 54 53 54 52 49 47 47 49 51 52 52 52 52 52
50 51 52 52 52 52 52 52 51 51 50 49 48 47 48 48 47 47 46 45 45 44 42 41 41 41 41 41 42 42 41 40 40 40 40 40 39 38 36 35 34 33 33 33 34 35 37 38 39 39 39 39 39 39 39 40 41 42 43 45 48 52 55 58 60 62 61 57 53 53 56 57 56 56 56 55 51 50 51 52 53 54 55 54 54
50 51 52 52 52 53 53 53 53 53 52 51 50 50 49 49 48 48 47 47 47 46 45 45 44 44 44 44 44 44 43 43 42 43 43 43 43 42 41 39 38 36 36 35 35 36 37 38 40 40 40 41 41 41 41 41 41 42 43 45 47 49 53 56 59 61 63 63 60 57 55 56 57 57 57 58 57 55 53 54 54 55 55 55 54
54 53 53 53 53 54 54 55 54 54 53 52 52 52 52 51 51 50 49 49 48 47 47 47 46 46 47 47 46 46 46 45 45 45 45 45 45 45 44 43 42 41 40 39 39 38 39 40 40 41 41 42 42 43 42 42 42 42 43 44 46 48 51 54 57 60 62 65 66 64 61 58 58 58 59 59 60 59 58 56 56 56 56 55 54
57 57 57 56 56 56 56 57 56 55 55 54 53 53 53 53 53 53 53 52 51 50 50 50 49 49 49 49 49 49 48 48 47 47 47 47 47 47 47 46 45 45 44 44 43 42 42 41 42 42 42 42 43 43 44 44 44 44 44 44 45 47 49 52 55 58 60 63 65 67 66 64 61 61 62 61 61 62 63 62 61 60 60 59 58
60 59 59 59 59 59 59 59 59 58 58 56 55 55 55 55 55 55 55 55 54 53 53 52 52 51 51 51 50 50 50 50 50 50 50 50 50 49 49 49 48 48 47 47 46 46 45 45 44 44 44 44 43 44 45 45 45 46 46 45 45 47 48 50 52 55 58 60 63 65 67 68 67 65 64 64 62 61 63 66 67 66 66 64 63
62 61 61 61 61 61 61 61 61 61 61 60 58 58 58 58 58 57 57 57 56 56 55 54 54 54 55 54 53 52 52 52 53 53 53 53 53 53 52 51 51 50 49 49 49 49 49 48 48 47 46 46 46 45 46 46 47 47 48 48 48 48 49 50 51 53 55 57 60 62 64 66 68 68 67 67 65 63 62 63 67 69 69 70 69
62 62 61 61 62 63 63 62 62 63 63 62 61 61 61 61 62 61 60 60 59 58 58 57 57 57 58 57 55 54 54 54 55 56 55 55 55 55 55 54 53 53 52 52 51 51 51 51 51 50 50 50 49 48 48 48 48 48 49 50 51 51 51 51 51 52 54 55 57 59 61 63 65 67 68 69 69 68 65 63 64 66 68 70 71
60 60 61 61 61 63 63 62 62 63 64 64 64 63 63 63 64 63 63 63 62 61 61 61 61 61 61 60 58 57 56 56 57 58 58 58 57 57 57 57 57 56 56 55 55 54 54 53 53 53 53 54 53 53 52 52 51 50 50 51 52 53 53 53 53 53 54 55 56 57 59 61 62 64 65 67 68 70 70 67 65 65 66 68 69
58 58 59 59 60 60 61 60 61 62 63 64 65 65 64 64 64 64 64 64 63 63 63 63 64 65 64 63 62 61 60 60 60 61 61 61 60 60 60 60 60 59 59 59 58 58 57 57 56 55 55 56 57 57 57 56 55 54 53 53 53 54 54 55 56 56 56 56 57 58 59 60 60 62 63 65 66 68 69 69 68 67 66 68 69
58 58 58 58 58 59 59 58 58 59 60 61 62 62 63 63 63 62 63 63 63 64 64 63 65 67 66 65 65 65 64 64 63 63 64 63 63 62 62 62 62 62 62 62 62 61 61 60 60 59 59 59 59 60 60 60 59 58 57 57 56 56 56 56 57 58 58 58 58 59 60 61 61 62 62 63 65 66 67 68 69 68 67 68 70
57 57 58 58 58 58 58 58 56 56 57 58 58 58 58 59 59 58 59 60 61 61 61 62 65 66 67 66 67 68 67 66 66 66 66 66 66 65 65 65 65 65 65 65 64 64 64 63 63 63 62 63 63 63 63 63 63 62 62 61 60 59 59 59 59 59 60 61 61 61 61 62 62 63 63 64 64 65 66 67 68 68 68 68 70
55 57 58 58 58 58 57 57 55 54 54 55 56 56 55 56 56 56 56 56 57 57 58 59 61 64 65 65 67 69 69 68 68 68 69 69 69 69 69 69 69 68 68 67 67 66 66 66 66 66 66 67 67 67 67 66 66 66 66 66 65 64 63 62 62 62 62 63 63 64 64 64 64 64 65 65 66 66 67 67 68 68 68 69 70
55 56 57 58 58 58 58 57 56 55 55 55 56 56 56 56 57 56 56 57 56 56 57 58 58 60 62 62 64 67 67 66 66 66 68 69 70 71 72 73 73 72 71 70 70 69 68 68 68 68 69 69 70 71 70 70 69 69 69 69 69 68 68 67 66 65 65 65 65 66 66 66 66 66 66 66 67 68 68 68 68 69 69 69 70
56 57 58 58 59 59 60 60 60 59 59 58 59 59 58 58 59 59 59 59 59 59 59 58 58 59 61 61 62 64 64 62 61 62 64 67 69 71 73 74 74 74 74 74 73 71 71 71 71 71 72 72 72 73 73 73 72 72 72 72 72 72 72 71 70 69 69 68 68 68 68 68 68 69 68 68 68 69 69 69 69 70 70 70 71
59 59 60 60 61 61 62 63 63 63 63 62 62 62 62 61 62 62 62 62 63 63 63 61 60 61 62 63 64 64 62 60 60 61 63 65 67 69 72 73 74 75 76 75 74 73 73 74 75 76 76 76 75 75 75 75 75 75 75 74 74 74 75 74 74 74 73 72 72 71 71 70 70 71 71 71 71 70 70 70 70 70 70 71 71
61 62 62 63 63 64 64 66 66 66 66 66 66 66 66 65 65 65 66 66 66 67 66 65 64 64 64 65 66 65 63 61 61 62 63 64 65 67 69 72 73 74 74 74 73 73 73 75 78 80 80 80 80 79 78 77 77 77 77 77 77 78 78 77 77 77 77 76 76 75 75 74 74 73 73 73 73 73 72 72 72 71 71 71 72
64 64 65 65 66 66 66 68 69 69 69 69 69 69 68 68 68 68 69 69 69 69 69 69 68 67 67 68 68 68 67 65 63 63 64 64 66 67 69 71 72 72 72 71 70 69 69 71 77 82 81 81 82 82 82 81 80 79 79 79 80 80 81 81 80 80 80 80 80 79 79 78 77 77 76 75 75 75 75 75 75 74 73 73 73
67 67 67 68 68 68 68 69 70 71 72 72 71 71 71 71 71 71 71 72 72 71 71 71 70 70 70 70 71 71 70 69 67 66 65 65 67 68 70 71 71 70 70 69 68 67 66 68 74 79 80 81 82 84 85 85 85 84 83 81 81 82 83 83 83 83 83 83 83 82 82 82 81 80 79 79 78 78 78 78 77 77 77 76 76
69 69 70 70 70 71 71 72 72 73 74 75 75 74 74 74 74 74 74 74 74 74 74 73 73 72 72 73 73 73 73 72 71 69 67 67 68 69 71 72 72 70 69 68 66 66 67 70 73 75 76 79 81 84 86 88 88 88 86 84 84 84 84 85 85 85 86 86 86 85 85 85 84 84 84 83 82 82 81 81 81 80 80 79 79
70 71 72 72 72 73 73 74 74 75 75 76 77 77 77 77 77 77 77 77 77 77 77 76 76 75 75 75 75 75 75 75 74 72 70 70 71 71 72 73 73 72 70 68 67 66 68 71 73 72 73 76 79 82 85 88 90 90 88 87 87 88 88 88 87 87 87 88 88 88 88 87 87 87 87 87 86 86 85 85 84 84 84 83 83
72 72 73 73 74 75 75 76 76 77 77 78 79 79 80 80 80 79 80 80 80 80 79 79 79 79 78 78 77 77 77 76 76 74 73 72 72 73 73 73 74 74 73 71 69 68 69 71 72 72 72 76 78 80 83 86 87 87 86 87 89 91 91 91 91 91 90 90 90 90 90 90 89 89 89 89 89 89 88 88 88 88 88 87 87
73 73 74 75 75 76 76 77 77 78 79 80 81 81 81 82 82 82 82 82 82 81 81 81 81 81 81 80 79 79 78 78 78 76 75 74 74 74 75 75 75 75 74 73 72 71 71 72 72 72 73 76 79 81 83 83 82 81 83 85 88 90 91 92 93 94 94 93 92 92 92 91 91 91 92 92 92 91 90 91 91 91 91 91 91
74 75 76 76 76 76 77 78 79 80 81 81 82 82 82 83 83 84 84 84 83 83 83 83 83 83 83 82 82 82 81 80 80 79 77 76 76 76 76 76 76 76 76 75 74 74 73 73 73 74 75 77 79 81 82 80 79 79 81 84 86 87 88 89 92 94 96 96 95 95 95 94 93 93 93 93 93 93 92 92 93 93 94 94 94
76 77 77 77 77 77 77 78 79 80 81 81 82 82 82 83 84 84 84 84 84 85 85 85 85 85 85 85 84 83 83 82 82 81 79 78 78 78 77 77 78 78 77 77 76 76 75 75 75 76 76 77 79 81 81 78 77 78 81 83 84 85 85 86 88 91 94 96 96 97 97 96 96 95 95 95 95 94 94 93 94 95 95 96 96
77 77 77 76 76 76 77 77 78 79 79 80 80 80 81 81 82 83 84 84 84 85 86 85 85 85 85 85 85 84 83 83 82 82 81 80 79 79 79 79 79 79 79 79 79 78 77 77 77 76 78 79 80 81 80 78 77 78 79 80 81 83 83 84 85 87 89 92 94 97 98 98 98 97 98 98 98 97 95 95 95 95 96 96 97
77 77 76 75 75 74 74 75 75 76 77 77 76 77 77 78 79 81 82 82 83 84 85 84 84 84 84 83 83 82 82 81 81 81 80 80 80 80 80 80 80 80 80 81 80 79 79 78 77 77 78 79 80 79 79 78 77 78 78 78 80 81 81 82 82 83 85 88 91 94 96 98 98 99 99 100 100 99 98 97 97 97 98 98 99
76 75 74 73 73 72 72 72 72 72 73 73 72 72 73 74 75 76 78 79 80 82 82 81 81 81 81 81 81 80 79 79 78 78 78 78 79 79 79 79 80 80 80 80 80 80 80 80 79 77 77 77 77 78 78 78 78 77 76 76 78 78 78 78 79 81 83 85 87 90 93 95 96 98 99 99 100 100 100 100 100 100 101 102 102
72 71 71 70 69 69 68 68 68 68 68 68 68 67 67 68 69 70 71 73 75 76 76 76 76 76 76 76 76 75 74 74 74 74 74 74 75 75 76 76 77 78 79 79 79 79 79 79 79 77 76 75 75 76 77 77 76 75 74 74 74 75 75 75 76 78 80 82 84 87 89 90 92 95 96 96 97 98 99 100 100 101 102 103 104
67 67 66 66 65 65 64 64 64 64 64 63 63 62 62 63 64 64 66 68 69 69 69 70 70 70 70 71 71 71 70 69 69 70 69 69 70 71 72 72 73 75 77 77 77 76 76 76 76 76 75 73 73 75 77 76 75 73 72 71 71 72 72 72 74 76 78 80 81 83 85 86 88 90 92 92 93 94 95 97 98 99 100 102 103
65 65 64 63 62 61 61 61 61 61 60 60 60 59 59 59 60 61 63 64 65 66 66 67 66 66 67 68 68 68 67 66 66 67 66 65 66 67 67 68 69 71 73 74 74 74 74 74 74 74 73 71 72 74 75 75 73 72 70 69 69 69 70 70 72 73 75 77 79 80 82 83 84 85 87 88 88 88 89 91 92 93 95 97 99
64 64 63 61 60 59 59 59 59 59 59 58 57 56 55 56 57 60 62 63 63 64 64 65 64 64 64 65 64 63 63 63 63 63 62 62 62 63 63 63 64 66 69 70 70 70 71 72 73 73 72 71 72 73 74 73 72 71 69 68 67 67 67 68 69 71 73 74 76 77 78 79 80 80 81 82 82 82 81 81 82 84 86 88 90
64 63 62 60 59 58 58 57 58 57 57 56 55 53 53 54 57 59 60 61 62 62 62 62 61 61 61 62 61 60 59 59 60 59 59 58 58 59 60 60 61 63 64 65 65 66 68 70 70 70 70 71 71 71 71 70 69 68 68 68 67 66 66 66 67 69 71 72 74 75 75 75 75 75 75 75 75 74 73 72 72 72 73 75 77
63 62 61 60 59 58 57 56 56 57 56 54 53 52 52 54 56 57 59 60 61 60 59 59 58 59 59 60 59 57 56 57 58 57 56 55 56 57 57 58 59 60 61 62 63 64 65 66 67 68 69 69 68 67 66 65 65 65 66 68 68 67 66 65 65 67 69 70 71 72 71 71 70 70 69 69 68 66 65 64 63 62 62 63 65
64 62 60 59 57 55 54 54 55 56 55 53 51 50 51 52 54 56 57 58 57 55 55 55 56 56 57 57 56 54 53 55 56 55 53 53 53 54 55 56 57 58 59 60 62 62 63 64 65 66 67 66 64 63 62 62 62 63 65 67 67 67 65 64 64 64 66 67 68 68 68 67 66 65 65 64 62 61 59 58 57 56 56 56 58
62 61 60 58 56 54 54 53 53 54 53 51 50 51 51 51 53 54 54 53 51 51 52 52 52 53 54 53 52 51 51 52 53 52 51 51 51 52 53 54 55 55 57 58 59 61 62 64 64 64 63 61 60 59 59 59 60 61 63 65 66 67 66 64 63 63 63 63 63 64 64 63 62 61 60 59 58 56 55 54 53 52 52 54 56
59 58 58 57 55 55 54 54 53 54 52 50 50 52 52 51 50 50 50 49 49 50 51 51 51 52 53 53 51 50 50 50 50 51 51 50 50 51 53 53 53 53 54 56 58 59 61 63 63 62 60 58 57 57 57 57 58 59 61 63 65 66 66 65 64 63 63 62 61 60 59 58 57 56 55 54 52 51 50 49 49 50 52 54 57
57 57 57 55 54 53 53 53 53 54 53 51 50 50 49 48 47 47 47 47 48 50 51 52 52 53 54 52 50 49 49 49 50 52 51 50 51 52 52 52 52 53 54 56 58 59 60 61 61 60 58 56 55 54 55 55 55 57 59 61 63 64 64 64 64 63 62 61 60 59 58 56 54 52 51 49 47 45 45 46 48 50 53 55 57
57 57 55 54 54 53 52 52 53 54 53 51 49 48 47 46 45 45 45 46 47 49 51 52 53 53 52 50 49 49 49 50 52 52 51 51 52 53 53 53 53 54 56 57 58 59 60 61 60 58 56 55 55 55 55 54 55 56 58 60 62 63 63 63 63 62 61 60 58 57 55 53 52 50 48 47 45 44 44 46 49 52 53 53 54
Wind_Direction
269 269 269 270 269 269 270 270 270 270 270 271 270 270 270 270 269 267 265 264 263 263 262 261 260 259 258 259 259 260 261 262 262 261 259 257 254 251 248 246 244 243 241 239 237 233 228 224 219 216 219 223 225 221 214 213 221 228 229 229 222 211 206 210 216 218 220 223 225 225 228 230 235 240 241 239 236 232 231 232 232 228 224 225 232
269 269 269 269 269 268 269 269 270 270 270 270 269 269 270 270 267 264 262 260 259 258 258 257 257 257 257 258 259 260 260 259 258 257 254 252 249 247 244 242 241 241 240 238 236 233 229 225 222 219 218 221 224 221 214 211 218 224 224 222 214 205 205 208 209 211 214 220 223 225 227 229 233 237 238 237 235 234 232 230 232 231 227 230 236
269 269 269 268 267 267 267 268 269 270 270 270 270 270 270 268 266 262 260 258 257 257 256 256 256 256 257 257 257 258 257 256 254 253 250 248 245 243 241 239 238 239 240 239 236 233 229 226 223 221 219 220 222 221 215 211 216 219 216 213 210 207 210 213 212 212 214 217 218 221 226 230 234 237 237 236 233 232 232 230 232 233 231 234 238
268 269 269 268 268 268 268 269 270 271 271 273 274 273 270 268 266 264 261 260 258 257 257 257 257 257 257 257 256 255 254 252 251 249 248 246 243 240 237 235 235 238 241 241 238 233 230 227 224 222 219 218 219 220 216 212 213 215 211 209 212 213 216 220 220 219 219 220 218 220 225 229 234 238 238 238 234 231 231 232 233 233 233 235 237
267 268 269 269 270 271 271 272 273 273 274 277 278 275 272 270 269 267 265 264 262 261 260 258 256 256 257 257 256 254 251 250 248 247 246 245 242 240 237 235 235 237 241 242 240 235 231 229 226 223 220 218 218 218 217 213 212 214 211 211 214 215 216 221 224 224 224 223 221 222 226 229 233 237 239 240 238 235 232 232 234 233 234 237 239
267 268 268 269 269 270 270 270 271 273 274 276 276 275 273 273 272 270 268 267 266 264 263 260 256 255 255 256 255 254 252 250 248 246 245 244 243 242 240 238 237 238 241 243 242 237 232 230 228 226 223 219 218 218 217 213 211 213 213 214 215 214 215 221 226 228 225 224 224 225 226 229 232 235 239 241 242 240 235 233 233 232 235 238 239
264 265 265 266 266 266 267 268 269 271 273 273 272 271 271 271 272 271 270 269 267 265 263 261 258 256 255 255 255 254 253 252 250 248 247 246 245 244 243 241 240 241 243 244 242 238 234 232 231 229 227 223 220 220 218 214 213 214 214 216 216 213 214 222 227 229 228 227 228 228 228 229 233 235 238 240 243 243 240 235 234 234 235 238 239
263 262 262 263 264 264 265 267 269 270 271 271 270 269 268 268 268 270 272 270 268 266 264 261 259 256 256 256 256 254 253 253 253 251 249 247 246 246 245 243 243 244 244 244 242 237 234 233 233 232 230 227 224 222 221 217 217 218 216 216 217 214 214 220 226 229 230 229 229 231 231 230 233 235 236 238 240 242 243 239 236 236 237 239 240
263 262 261 261 261 262 263 264 266 267 268 269 268 269 269 268 267 269 270 270 269 269 267 264 261 258 258 258 258 255 253 252 252 252 251 249 248 247 247 246 245 245 245 244 240 235 233 233 234 234 233 231 228 226 224 221 220 222 221 217 216 216 216 219 225 229 231 229 228 231 232 231 233 235 235 236 237 238 241 241 239 238 239 241 242
263 263 262 261 260 261 262 262 263 264 265 266 267 266 267 267 268 267 266 266 268 267 267 267 264 261 260 261 261 259 256 253 251 250 250 250 250 249 249 249 247 246 246 244 241 236 232 232 234 235 235 234 231 228 226 224 222 223 225 222 218 217 218 219 222 227 231 231 229 232 234 234 234 235 236 236 235 236 238 240 241 241 241 242 244
263 263 263 262 260 260 260 261 261 262 263 263 263 262 263 264 265 265 264 263 263 263 264 264 264 262 260 261 262 262 260 257 253 251 249 249 249 250 250 250 249 248 247 245 243 239 234 233 235 236 237 237 235 232 229 227 224 223 225 226 223 219 218 219 220 223 229 233 233 233 237 239 238 237 238 238 237 235 236 238 240 242 243 245 246
262 263 264 264 263 261 260 260 260 260 261 261 260 260 260 260 261 262 262 262 261 261 260 260 260 261 260 260 260 261 261 259 257 254 252 250 248 249 250 250 250 249 247 246 244 242 238 235 235 238 239 240 238 236 233 230 227 225 225 227 228 225 221 220 220 221 224 231 235 236 237 241 243 243 241 240 239 237 237 238 240 243 245 246 247
260 262 263 264 264 263 262 261 260 259 259 259 259 259 258 258 259 259 260 260 260 258 257 256 256 257 258 258 259 259 260 260 258 256 254 253 250 249 248 248 249 249 247 246 244 243 242 239 238 239 241 242 242 241 238 234 231 228 226 226 228 229 227 224 223 222 222 224 230 235 237 238 242 245 245 242 241 240 239 238 240 243 245 246 247
259 260 261 262 262 263 263 262 261 260 259 259 258 257 257 257 258 258 258 259 259 257 256 255 254 254 254 255 256 256 257 258 257 257 255 254 253 251 249 248 248 248 248 247 245 243 243 242 242 242 243 243 244 243 242 239 236 232 229 228 228 228 229 229 228 226 225 223 223 228 234 236 238 242 245 245 242 240 241 240 240 242 244 246 248
258 258 259 260 261 261 262 262 261 260 260 259 258 257 256 255 255 255 255 256 257 257 255 254 252 252 252 252 253 253 253 254 254 255 255 254 253 252 251 250 249 249 248 247 247 245 243 243 243 244 244 244 244 244 243 242 241 238 233 231 230 229 229 230 231 231 230 229 228 227 228 231 234 236 240 244 244 240 239 240 241 242 244 246 246
258 258 258 259 260 260 261 261 261 261 260 259 258 258 257 257 256 256 255 254 255 255 255 254 253 251 251 251 252 252 252 252 252 252 253 253 253 253 252 251 251 250 249 248 247 247 245 244 244 244 245 245 245 245 244 243 243 242 239 235 233 232 231 231 231 232 233 233 234 234 231 229 230 231 233 238 241 241 239 238 240 242 244 245 244
259 258 258 258 258 259 260 261 261 261 261 260 259 259 259 258 258 258 257 256 255 254 254 254 253 252 252 252 252 253 252 252 252 252 252 252 252 252 252 251 251 250 250 249 248 247 247 246 245 244 245 245 245 245 244 243 243 243 243 240 237 235 234 234 233 233 234 235 236 237 237 234 231 231 231 232 235 238 239 239 240 240 241 243 243
259 259 259 259 258 258 259 260 260 260 260 260 260 260 260 260 260 259 259 258 257 256 256 256 255 255 253 252 252 252 252 252 252 252 252 252 251 251 251 251 250 250 250 250 249 248 247 247 246 246 245 245 245 245 244 244 243 242 243 243 241 239 237 237 237 235 235 236 237 238 239 238 237 235 234 233 233 234 236 238 240 241 241 241 241
261 260 259 260 260 259 257 258 259 260 260 260 260 260 260 260 260 260 259 259 259 259 258 257 257 257 256 254 252 252 251 251 252 252 251 251 251 251 251 251 251 251 251 251 250 250 249 248 247 247 247 247 246 245 245 245 244 243 242 242 243 242 240 239 239 239 238 237 238 239 239 240 240 239 238 237 236 236 235 235 237 240 241 241 241
261 260 260 259 260 260 259 258 258 259 259 259 258 258 258 259 259 259 259 259 259 260 259 259 258 257 257 256 255 254 252 252 252 252 251 251 251 250 250 250 251 251 251 251 251 251 251 250 249 248 248 248 248 246 245 244 244 244 243 242 242 242 242 241 240 240 240 240 239 239 240 240 241 241 241 240 240 240 240 238 237 237 239 241 242
260 260 260 259 258 259 259 259 259 259 259 259 258 257 256 257 258 258 258 258 259 259 259 259 259 258 257 257 256 255 254 253 253 253 252 251 250 250 250 250 250 249 249 249 249 250 250 250 250 249 249 249 249 249 247 246 244 244 244 244 243 243 243 243 242 242 241 242 241 241 241 241 241 241 242 241 241 242 243 243 241 239 238 239 241
258 258 259 258 258 258 258 258 258 259 259 260 260 259 258 257 257 258 258 258 258 258 258 258 258 258 258 257 256 255 254 253 253 253 253 252 250 250 249 249 249 249 249 248 248 248 248 248 248 249 248 248 248 249 249 248 247 245 245 244 244 244 244 243 243 243 243 242 242 242 242 242 242 242 242 242 242 243 243 245 245 244 242 241 241
257 257 258 258 258 258 258 257 257 258 259 260 260 261 261 260 259 258 259 258 258 257 257 257 257 257 257 257 256 255 254 253 252 252 252 252 251 251 250 250 249 249 249 248 248 248 247 247 247 248 248 248 248 248 248 248 248 248 247 246 244 244 244 244 244 244 244 243 243 243 243 243 243 243 243 243 243 243 244 244 245 245 245 244 244
259 259 259 259 259 259 260 259 259 259 260 261 261 262 262 262 262 260 259 258 258 257 256 256 256 257 256 256 256 255 254 253 252 252 252 252 252 251 251 250 250 249 249 249 248 249 249 248 248 248 248 248 247 247 246 246 247 247 247 247 247 245 244 244 244 244 244 244 244 243 243 244 244 244 244 244 244 245 245 245 245 246 246 245 245
261 262 263 263 263 264 264 264 263 262 262 263 264 264 263 263 263 262 261 260 259 258 257 255 255 256 255 255 255 255 253 252 252 252 253 252 252 252 251 251 250 250 250 249 249 249 249 249 249 249 249 248 248 247 246 245 245 246 246 246 247 246 246 245 244 244 244 243 244 244 244 244 244 245 245 245 245 246 246 246 246 246 247 247 247
260 262 263 265 266 266 267 267 266 265 264 264 264 265 265 265 264 264 263 262 261 260 258 257 257 257 256 255 255 255 253 253 253 253 254 253 252 252 252 251 251 251 251 251 251 251 251 250 250 250 250 249 248 248 247 246 245 245 245 245 246 246 246 246 246 246 245 245 244 244 244 244 245 245 245 245 246 246 247 247 247 248 248 248 248
261 261 262 262 263 264 265 266 266 265 264 264 264 263 263 264 264 264 264 263 263 261 259 258 258 259 259 257 256 255 254 252 251 251 252 252 252 251 251 251 251 251 251 250 250 251 252 253 253 252 251 250 249 248 248 247 246 245 245 245 245 246 246 246 246 247 247 247 246 245 245 245 245 245 245 246 246 246 247 247 247 248 248 249 249
262 262 262 262 262 262 262 263 263 264 264 264 264 264 263 263 263 263 263 262 262 262 261 260 259 259 259 259 257 256 255 253 252 251 251 251 252 252 251 251 250 250 250 250 250 250 251 252 252 252 252 251 250 250 249 248 247 246 246 245 245 245 245 246 246 246 247 247 248 247 247 246 246 245 245 246 246 247 247 248 247 247 248 248 249
262 262 262 262 262 262 262 262 262 262 263 263 264 264 264 264 263 263 262 262 261 262 262 262 261 260 260 260 260 259 257 255 254 253 253 252 253 253 253 253 252 251 250 250 250 251 251 252 252 251 251 252 252 251 250 249 248 247 246 246 246 246 245 245 245 246 246 246 247 247 248 248 247 247 247 246 246 246 247 247 248 248 248 248 248
264 263 263 263 263 263 263 264 264 264 263 263 263 263 264 264 264 264 264 263 263 263 263 263 263 263 262 262 262 261 260 258 256 254 254 254 254 254 254 254 254 253 252 251 250 250 251 253 253 251 250 251 252 252 252 251 250 249 247 246 246 246 246 246 245 245 245 246 246 246 247 247 248 248 248 248 248 248 248 248 248 248 248 248 248
264 264 264 264 264 264 264 264 265 265 265 265 265 264 264 264 264 263 264 264 264 264 264 264 264 264 263 263 263 263 262 261 259 258 257 256 256 256 256 255 255 255 254 253 252 251 250 251 253 253 251 251 251 251 252 251 251 250 249 248 247 247 247 247 246 246 246 246 246 246 246 247 247 247 248 248 249 249 249 249 249 248 248 248 248
264 264 264 263 263 264 264 264 264 264 265 266 266 265 265 265 264 264 264 264 264 264 264 263 263 263 263 263 263 263 263 263 262 261 260 259 258 258 258 258 257 256 255 254 253 252 252 251 253 255 255 254 253 252 251 251 250 250 249 249 249 249 249 248 248 247 247 247 247 246 246 246 247 247 247 248 248 249 249 249 250 250 249 249 249
264 263 263 263 263 262 262 262 263 263 263 264 265 265 265 265 265 264 264 264 264 264 263 263 262 262 262 262 262 263 263 264 264 263 262 261 260 260 259 259 260 259 258 256 254 253 253 253 254 254 256 256 255 254 253 252 251 250 250 250 250 250 250 250 249 249 248 248 247 247 247 247 247 247 247 247 248 248 248 249 249 250 250 250 250
264 264 263 263 263 262 262 262 262 262 262 262 263 263 264 264 264 264 264 264 264 264 264 263 263 262 262 262 262 262 262 263 263 263 263 262 262 261 261 261 260 260 260 259 257 255 255 255 255 254 254 255 255 255 254 254 253 253 252 252 252 251 251 251 251 250 249 249 248 248 248 247 247 247 247 247 248 248 248 248 249 249 250 250 250
265 264 263 262 262 263 263 263 262 262 262 262 262 262 262 263 263 263 263 263 264 264 263 263 263 263 263 262 262 262 262 262 263 263 263 263 263 262 262 262 261 261 261 260 260 258 257 256 256 255 255 254 254 253 254 254 255 255 254 254 253 253 252 252 252 252 251 250 249 249 249 248 248 248 247 248 248 248 248 248 249 249 250 250 250
265 264 263 263 263 263 262 262 262 262 262 262 262 262 262 262 262 263 263 263 263 263 263 263 263 263 263 263 263 263 263 263 264 264 264 264 264 263 263 263 263 262 262 261 261 260 260 259 258 257 256 255 255 255 255 255 255 255 255 254 254 254 253 253 252 252 252 252 251 250 250 249 249 249 249 248 248 248 248 249 249 250 250 250 251
265 264 264 264 264 263 263 262 262 261 261 261 261 261 262 262 262 262 262 263 263 263 263 263 263 263 263 263 263 263 264 265 265 265 265 265 264 264 264 264 264 264 264 263 262 261 261 260 260 259 258 257 257 256 256 256 255 255 255 255 255 255 254 254 253 253 253 253 252 252 252 251 250 250 250 250 250 249 249 249 249 250 250 251 251
267 266 265 265 264 264 263 263 263 262 262 261 261 261 261 261 262 262 262 262 262 262 262 262 262 262 262 263 263 263 263 264 264 265 265 265 265 265 264 264 264 264 265 264 264 263 262 261 261 260 260 259 258 258 258 257 257 257 257 257 256 256 256 255 254 254 254 254 254 254 253 252 251 251 251 251 251 251 251 251 251 251 251 251 252
269 269 268 267 266 265 265 264 263 263 263 262 261 261 261 261 261 261 261 261 261 261 260 261 261 261 261 261 262 262 262 262 263 263 264 264 264 264 264 264 264 264 264 264 265 265 264 263 262 261 260 260 260 260 260 260 259 258 258 257 257 256 256 256 256 256 255 255 254 254 254 254 253 252 252 252 252 252 252 252 252 252 253 253 253
271 271 270 270 268 267 266 265 264 263 263 262 261 261 260 260 259 259 259 260 260 260 260 260 260 260 261 261 261 261 261 262 262 262 263 263 263 264 263 263 263 263 263 263 264 264 264 264 264 263 262 261 261 261 261 260 259 258 258 258 257 257 257 257 257 257 256 255 255 254 254 254 255 254 253 253 252 252 253 253 253 253 254 254 254
271 271 270 270 269 268 267 266 265 263 263 262 261 260 259 259 258 258 259 259 259 260 260 260 260 261 261 261 261 261 261 261 262 262 262 262 262 262 262 262 262 262 262 262 262 262 262 263 263 264 263 263 263 263 262 262 261 260 259 259 259 259 259 259 259 259 258 257 256 255 254 254 254 255 255 254 254 253 253 253 253 254 254 255 255
271 270 270 269 268 268 267 266 265 264 263 262 261 260 259 258 258 258 258 258 259 259 260 260 260 260 260 260 261 261 260 260 260 260 260 260 260 260 260 260 260 260 260 261 261 261 261 262 262 263 263 262 262 262 263 263 262 262 261 261 261 261 261 260 260 260 260 259 259 258 257 256 255 255 255 255 255 254 254 253 253 254 254 255 255
271 271 269 268 268 267 266 266 265 264 264 263 262 261 261 260 259 259 258 258 258 258 258 258 258 258 258 258 259 259 259 259 259 259 259 259 259 259 259 259 258 259 259 260 260 261 261 262 262 262 262 262 261 262 262 263 263 264 263 263 263 263 263 262 261 261 260 260 260 259 259 258 257 257 257 257 256 255 255 254 254 254 254 255 255
271 270 270 269 268 267 266 266 266 265 264 264 263 262 262 262 261 260 259 258 258 257 257 257 258 258 258 259 259 259 259 259 259 259 259 259 259 259 259 259 258 258 259 259 260 260 261 261 261 262 262 262 261 261 262 263 264 265 266 265 265 264 264 263 262 261 261 260 260 260 260 260 259 259 259 259 259 258 258 257 256 256 255 255 255
270 270 269 269 268 267 267 266 266 265 265 264 264 263 262 261 260 259 258 258 258 257 257 257 258 258 258 259 259 258 258 258 258 257 257 257 257 258 258 258 258 258 258 259 259 260 260 260 260 260 261 261 261 261 262 263 264 266 267 267 267 266 264 263 261 261 260 260 260 260 261 261 261 261 261 261 261 261 261 260 259 258 257 255 254
269 268 268 267 267 267 267 268 268 267 266 265 264 263 261 259 258 258 257 257 256 257 257 257 257 257 257 257 258 258 257 257 257 257 256 256 256 256 256 257 257 257 258 258 259 258 258 259 259 259 259 259 260 262 263 264 265 265 266 266 266 265 264 262 261 260 259 260 261 262 262 263 263 264 264 264 264 264 264 263 262 260 257 254 252
270 270 269 269 268 268 268 267 267 267 266 266 264 262 260 258 257 257 256 256 257 257 258 257 257 257 257 257 258 258 257 256 257 257 256 255 254 254 254 254 255 255 256 257 258 258 259 259 258 258 259 260 261 263 263 264 263 263 263 263 264 264 265 264 263 262 261 261 262 263 264 265 265 265 266 266 266 266 265 264 262 260 257 253 251
269 270 271 271 271 270 269 267 265 264 264 264 264 262 260 257 256 255 256 257 258 258 258 257 257 257 258 257 257 256 255 255 256 256 255 254 254 253 253 253 253 254 255 256 257 258 259 259 259 260 261 262 262 263 263 263 262 261 262 262 264 265 266 267 267 266 265 264 264 264 265 265 266 266 266 266 266 266 265 264 262 260 257 253 250
269 269 269 269 268 267 267 266 266 265 264 263 261 260 259 258 257 257 258 258 259 259 259 259 258 258 257 256 256 255 255 255 256 256 255 254 254 253 253 254 254 255 256 256 257 257 258 259 261 262 263 263 263 262 262 262 262 263 263 263 264 265 267 268 269 268 268 268 268 268 268 268 268 267 267 267 266 266 265 263 261 258 255 253 251
268 267 266 266 265 264 263 263 263 264 264 263 261 260 260 260 260 259 259 259 258 258 259 259 258 257 257 256 256 256 256 256 255 254 254 254 253 253 254 254 255 255 255 256 257 258 259 260 261 262 263 264 264 264 264 263 263 263 264 265 266 267 268 269 269 269 270 270 271 271 271 271 271 271 270 270 268 266 263 260 257 254 252 251 252
265 265 265 265 265 264 263 262 261 262 262 264 265 266 266 265 263 261 260 258 257 257 257 258 258 258 258 258 258 257 256 254 253 252 251 251 251 252 252 252 251 251 252 254 255 257 259 261 263 264 265 267 267 267 266 266 265 264 264 265 266 267 268 269 270 271 272 272 272 272 273 273 273 272 272 270 268 264 260 256 253 252 252 252 254
Height
10608 10607 10607 10608 10608 10607 10606 10606 10607 10608 10611 10612 10613 10613 10613 10615 10616 10617 10617 10617 10618 10618 10619 10620 10621 10622 10623 10623 10624 10625 10626 10627 10627 10628 10629 10630 10632 10633 10634 10634 10635 10637 10638 10639 10641 10643 10645 10647 10650 10652 10654 10655 10656 10658 10661 10663 10664 10665 10668 10670 10672 10673 10675 10677 10679 10680 10682 10684 10686 10687 10688 10690 10693 10694 10696 10697 10699 10702 10703 10705 10707 10710 10712 10713 10715
10603 10603 10603 10603 10603 10602 10602 10602 10602 10604 10606 10607 10608 10609 10609 10610 10611 10612 10612 10613 10613 10614 10615 10616 10617 10618 10618 10619 10620 10621 10623 10624 10624 10625 10626 10627 10628 10629 10630 10631 10632 10633 10635 10636 10637 10639 10641 10642 10645 10647 10649 10650 10651 10653 10656 10658 10659 10661 10664 10665 10667 10669 10671 10673 10675 10676 10678 10680 10682 10683 10684 10686 10688 10690 10691 10693 10695 10697 10699 10702 10704 10706 10708 10710 10711
10598 10598 10599 10598 10598 10598 10598 10598 10599 10600 10602 10603 10604 10605 10605 10605 10606 10607 10608 10608 10609 10610 10611 10612 10613 10614 10615 10616 10617 10618 10619 10620 10621 10622 10622 10624 10625 10626 10627 10628 10629 10630 10631 10632 10634 10635 10636 10638 10640 10642 10644 10645 10646 10648 10650 10652 10654 10656 10659 10660 10662 10663 10666 10668 10670 10672 10674 10675 10677 10679 10680 10682 10683 10684 10687 10689 10691 10693 10695 10699 10701 10703 10705 10707 10708
10593 10594 10594 10593 10593 10594 10594 10595 10596 10597 10598 10600 10601 10602 10602 10601 10601 10602 10603 10604 10606 10607 10608 10609 10610 10610 10611 10613 10614 10615 10616 10617 10618 10618 10619 10620 10622 10623 10624 10625 10626 10627 10628 10629 10630 10631 10632 10633 10635 10637 10639 10640 10642 10643 10645 10647 10650 10652 10654 10656 10657 10659 10661 10663 10665 10667 10668 10670 10673 10675 10676 10678 10679 10680 10682 10684 10687 10689 10692 10694 10697 10699 10702 10703 10704
10589 10590 10590 10589 10590 10590 10591 10591 10592 10593 10595 10597 10598 10598 10598 10598 10598 10598 10600 10601 10602 10603 10605 10606 10606 10607 10608 10609 10610 10611 10612 10613 10614 10615 10616 10617 10618 10620 10621 10622 10623 10624 10625 10625 10626 10627 10628 10629 10631 10632 10634 10636 10637 10639 10640 10643 10645 10647 10650 10652 10654 10655 10657 10658 10660 10661 10663 10666 10668 10670 10672 10674 10675 10676 10678 10680 10682 10685 10688 10691 10693 10695 10698 10700 10701
10585 10585 10585 10585 10586 10586 10587 10587 10588 10590 10592 10594 10594 10595 10595 10594 10594 10595 10596 10598 10598 10600 10601 10602 10602 10603 10604 10605 10606 10607 10608 10610 10611 10612 10613 10614 10615 10616 10618 10619 10620 10621 10621 10622 10622 10623 10624 10625 10626 10628 10630 10631 10633 10634 10636 10638 10640 10642 10645 10647 10649 10651 10653 10654 10655 10656 10658 10661 10663 10665 10667 10669 10671 10673 10675 10676 10678 10680 10684 10687 10688 10690 10693 10694 10696
10581 10580 10581 10581 10581 10582 10582 10583 10584 10586 10588 10590 10591 10591 10591 10591 10591 10591 10593 10594 10595 10596 10597 10598 10599 10600 10601 10602 10603 10604 10605 10606 10607 10609 10610 10611 10612 10613 10614 10615 10616 10617 10618 10618 10619 10619 10620 10621 10622 10623 10625 10627 10629 10630 10631 10633 10635 10637 10639 10642 10644 10647 10648 10649 10650 10651 10654 10657 10658 10660 10662 10665 10668 10670 10671 10673 10675 10676 10679 10681 10683 10686 10688 10689 10690
10575 10576 10576 10576 10576 10577 10578 10579 10580 10582 10583 10585 10587 10587 10588 10588 10587 10588 10589 10590 10592 10593 10593 10594 10595 10596 10597 10598 10599 10600 10601 10602 10604 10605 10606 10607 10608 10609 10610 10611 10613 10614 10614 10615 10615 10615 10616 10617 10618 10619 10621 10622 10624 10626 10627 10628 10630 10631 10634 10636 10639 10642 10644 10645 10646 10647 10650 10652 10654 10655 10658 10661 10664 10666 10668 10669 10671 10672 10674 10677 10679 10681 10683 10684 10686
10569 10570 10571 10572 10572 10572 10574 10575 10575 10577 10578 10580 10582 10584 10584 10583 10584 10585 10586 10587 10588 10589 10590 10590 10591 10593 10594 10594 10595 10596 10597 10599 10600 10601 10603 10604 10605 10606 10606 10607 10609 10609 10610 10611 10611 10611 10612 10613 10614 10615 10616 10618 10619 10621 10623 10624 10625 10626 10628 10631 10634 10637 10639 10641 10642 10643 10645 10647 10649 10651 10653 10657 10659 10661 10664 10666 10667 10668 10670 10671 10674 10677 10678 10681 10682
10562 10563 10565 10567 10568 10568 10569 10570 10571 10572 10573 10575 10578 10579 10579 10579 10580 10581 10582 10583 10585 10586 10586 10587 10588 10589 10590 10590 10591 10592 10593 10594 10596 10597 10598 10599 10601 10602 10603 10603 10604 10605 10606 10607 10607 10607 10608 10609 10610 10610 10612 10613 10614 10616 10618 10619 10620 10621 10623 10625 10628 10632 10635 10637 10639 10640 10641 10643 10645 10647 10649 10652 10655 10657 10659 10661 10663 10664 10665 10667 10669 10671 10674 10676 10677
10557 10557 10558 10561 10563 10563 10564 10565 10566 10567 10568 10570 10572 10574 10574 10574 10575 10576 10577 10579 10581 10582 10583 10583 10584 10585 10586 10586 10587 10588 10589 10590 10591 10593 10594 10595 10596 10597 10598 10599 10600 10601 10602 10602 10603 10604 10604 10605 10606 10606 10607 10608 10609 10611 10613 10614 10616 10617 10618 10620 10623 10626 10629 10632 10635 10636 10637 10638 10641 10643 10644 10647 10649 10652 10654 10656 10658 10660 10661 10662 10664 10666 10668 10670 10672
10552 10551 10552 10554 10556 10557 10558 10560 10561 10562 10562 10564 10567 10568 10569 10569 10570 10571 10572 10574 10576 10578 10579 10579 10580 10580 10581 10582 10583 10584 10585 10586 10587 10588 10590 10591 10592 10593 10594 10595 10596 10596 10597 10598 10599 10600 10600 10601 10602 10603 10603 10604 10605 10606 10608 10609 10611 10613 10614 10616 10618 10621 10623 10626 10629 10632 10633 10634 10636 10639 10641 10642 10644 10646 10649 10651 10653 10655 10657 10658 10659 10661 10663 10665 10667
10548 10547 10548 10548 10549 10550 10551 10554 10555 10556 10557 10559 10561 10563 10563 10563 10565 10566 10567 10569 10570 10572 10574 10574 10575 10576 10576 10577 10578 10579 10580 10581 10582 10583 10585 10586 10587 10589 10590 10590 10591 10592 10593 10594 10595 10595 10596 10597 10598 10599 10600 10601 10601 10602 10604 10605 10607 10608 10610 10612 10613 10616 10618 10620 10623 10626 10628 10630 10631 10634 10636 10639 10639 10640 10643 10646 10648 10650 10652 10654 10655 10656 10658 10660 10662
10543 10542 10543 10543 10543 10543 10544 10546 10548 10549 10551 10553 10555 10557 10556 10557 10560 10560 10561 10563 10564 10566 10568 10569 10570 10570 10571 10572 10573 10574 10575 10576 10577 10578 10579 10581 10582 10584 10585 10586 10586 10587 10588 10589 10590 10591 10591 10592 10593 10595 10596 10597 10598 10599 10600 10601 10603 10604 10606 10608 10609 10611 10613 10615 10617 10619 10622 10624 10626 10628 10630 10633 10635 10636 10637 10640 10643 10645 10646 10648 10650 10651 10652 10654 10656
10537 10537 10537 10537 10537 10537 10538 10539 10540 10542 10544 10546 10548 10550 10550 10551 10553 10554 10555 10556 10557 10559 10560 10562 10563 10564 10565 10566 10567 10568 10570 10571 10572 10573 10574 10575 10577 10578 10579 10581 10581 10582 10583 10584 10585 10586 10586 10587 10588 10590 10591 10592 10593 10594 10596 10597 10599 10601 10602 10604 10605 10607 10608 10609 10611 10613 10615 10617 10619 10622 10625 10627 10630 10632 10633 10634 10637 10640 10641 10642 10644 10646 10647 10648 10649
10530 10530 10531 10531 10531 10531 10531 10532 10533 10535 10537 10539 10541 10542 10543 10544 10545 10547 10548 10549 10550 10552 10553 10554 10556 10558 10559 10560 10561 10563 10564 10565 10566 10567 10568 10569 10570 10572 10573 10574 10576 10577 10577 10579 10580 10580 10581 10582 10583 10585 10586 10587 10588 10589 10591 10593 10594 10596 10598 10600 10601 10603 10604 10605 10606 10608 10609 10611 10613 10615 10618 10621 10623 10626 10628 10629 10630 10633 10635 10636 10638 10639 10640 10641 10643
10522 10523 10523 10524 10525 10525 10525 10525 10526 10528 10529 10531 10533 10535 10536 10537 10538 10539 10540 10542 10544 10545 10546 10547 10549 10551 10553 10554 10556 10557 10559 10560 10561 10561 10562 10563 10564 10565 10566 10567 10569 10570 10571 10572 10574 10575 10576 10577 10578 10579 10581 10582 10583 10584 10586 10587 10589 10591 10593 10595 10597 10598 10599 10600 10602 10603 10604 10606 10607 10608 10610 10613 10616 10619 10621 10622 10624 10625 10627 10629 10630 10632 10633 10634 10636
10513 10514 10515 10516 10517 10519 10519 10519 10519 10521 10522 10524 10526 10528 10528 10529 10530 10531 10532 10534 10536 10538 10539 10540 10542 10544 10545 10548 10550 10551 10552 10554 10555 10555 10556 10557 10557 10558 10559 10561 10562 10564 10565 10566 10568 10569 10570 10572 10573 10574 10575 10576 10578 10579 10580 10581 10583 10585 10587 10589 10591 10592 10594 10595 10597 10598 10599 10600 10602 10603 10605 10607 10609 10612 10614 10616 10617 10619 10620 10621 10623 10624 10626 10627 10629
10503 10506 10507 10507 10508 10509 10511 10512 10512 10513 10515 10517 10519 10521 10521 10521 10522 10523 10525 10526 10527 10529 10531 10533 10535 10536 10536 10539 10542 10544 10545 10547 10547 10548 10549 10550 10551 10552 10554 10555 10556 10558 10559 10560 10562 10563 10565 10566 10568 10569 10570 10571 10572 10573 10574 10575 10577 10579 10580 10582 10584 10586 10587 10589 10590 10592 10593 10595 10596 10598 10599 10601 10603 10605 10607 10609 10611 10612 10614 10615 10616 10617 10618 10620 10621
10493 10495 10498 10499 10499 10498 10501 10504 10505 10505 10506 10508 10511 10513 10514 10513 10514 10515 10517 10518 10519 10521 10523 10525 10526 10527 10528 10530 10533 10536 10538 10540 10540 10540 10542 10543 10545 10546 10547 10548 10550 10551 10552 10553 10555 10556 10558 10560 10562 10563 10564 10565 10565 10566 10567 10568 10570 10572 10574 10575 10577 10578 10580 10581 10583 10585 10587 10588 10590 10591 10593 10595 10597 10599 10601 10603 10604 10606 10607 10609 10610 10610 10611 10612 10614
10485 10485 10487 10489 10490 10490 10492 10495 10496 10495 10496 10497 10500 10503 10506 10506 10506 10507 10510 10510 10512 10513 10515 10516 10517 10518 10519 10521 10524 10528 10530 10531 10532 10532 10534 10536 10537 10538 10540 10541 10542 10543 10544 10545 10546 10548 10550 10552 10554 10556 10557 10558 10558 10559 10560 10561 10563 10565 10567 10568 10569 10571 10572 10574 10576 10578 10579 10581 10583 10584 10586 10588 10590 10592 10594 10596 10598 10599 10600 10602 10603 10604 10605 10605 10606
10477 10477 10477 10479 10480 10481 10483 10486 10487 10487 10487 10488 10489 10492 10495 10497 10498 10500 10501 10502 10504 10505 10507 10509 10508 10508 10510 10512 10515 10518 10521 10522 10523 10523 10524 10526 10528 10530 10532 10533 10533 10534 10535 10536 10538 10539 10541 10543 10545 10547 10549 10550 10551 10551 10552 10554 10556 10558 10560 10561 10562 10563 10565 10567 10568 10570 10572 10573 10575 10577 10578 10580 10582 10584 10586 10588 10590 10592 10593 10595 10596 10597 10598 10598 10598
10469 10469 10469 10470 10471 10472 10474 10477 10479 10479 10479 10479 10480 10482 10484 10487 10489 10492 10492 10493 10495 10496 10498 10500 10499 10498 10500 10503 10505 10508 10510 10512 10513 10514 10515 10517 10519 10521 10523 10524 10525 10526 10526 10528 10529 10531 10532 10535 10537 10539 10540 10541 10542 10543 10544 10546 10548 10550 10551 10552 10554 10556 10558 10559 10561 10562 10563 10565 10567 10568 10570 10572 10574 10576 10578 10580 10582 10584 10585 10587 10588 10589 10591 10591 10591
10463 10463 10463 10463 10463 10464 10466 10468 10471 10472 10472 10472 10472 10475 10476 10477 10479 10482 10483 10484 10485 10487 10489 10490 10489 10489 10491 10494 10495 10496 10500 10502 10503 10505 10506 10507 10509 10511 10513 10513 10514 10516 10517 10518 10520 10522 10524 10526 10528 10530 10532 10532 10533 10533 10535 10537 10539 10541 10542 10543 10545 10547 10549 10551 10552 10554 10555 10556 10558 10559 10561 10563 10565 10567 10569 10571 10573 10575 10577 10578 10580 10582 10583 10583 10583
10457 10457 10456 10456 10457 10458 10459 10460 10463 10465 10465 10465 10465 10467 10468 10469 10470 10472 10473 10474 10476 10477 10479 10480 10480 10480 10481 10484 10485 10485 10488 10491 10493 10495 10496 10497 10500 10502 10502 10503 10504 10506 10507 10510 10512 10513 10515 10517 10519 10521 10522 10523 10523 10523 10526 10528 10530 10532 10533 10534 10536 10538 10539 10541 10543 10544 10546 10548 10549 10551 10552 10554 10556 10558 10560 10562 10564 10566 10568 10569 10571 10573 10575 10576 10576
10452 10451 10450 10451 10451 10451 10451 10452 10454 10456 10457 10457 10457 10458 10460 10460 10461 10462 10463 10464 10466 10468 10469 10470 10471 10471 10471 10474 10475 10475 10478 10482 10485 10486 10486 10487 10489 10491 10492 10493 10494 10496 10499 10501 10503 10505 10507 10509 10510 10512 10512 10512 10513 10514 10516 10519 10521 10523 10524 10525 10527 10529 10530 10532 10533 10535 10537 10539 10541 10543 10544 10546 10547 10549 10551 10553 10555 10557 10559 10561 10563 10565 10567 10568 10568
10445 10445 10445 10445 10445 10445 10444 10444 10445 10446 10447 10448 10448 10449 10451 10451 10451 10452 10453 10454 10455 10456 10458 10460 10462 10462 10461 10464 10465 10465 10469 10473 10476 10477 10476 10476 10478 10479 10480 10482 10483 10485 10488 10490 10493 10497 10499 10500 10501 10501 10501 10501 10503 10504 10507 10509 10512 10514 10515 10517 10519 10521 10522 10524 10525 10527 10529 10530 10532 10534 10536 10538 10539 10541 10543 10544 10546 10548 10550 10552 10554 10557 10558 10560 10561
10436 10437 10437 10437 10437 10437 10437 10436 10436 10437 10437 10438 10439 10440 10441 10443 10443 10443 10444 10445 10444 10444 10446 10449 10452 10453 10452 10453 10453 10455 10459 10463 10465 10466 10466 10467 10467 10468 10469 10471 10472 10474 10476 10479 10485 10489 10488 10488 10488 10487 10488 10490 10492 10494 10496 10499 10502 10504 10506 10509 10510 10512 10514 10515 10517 10519 10520 10522 10523 10525 10527 10528 10530 10532 10534 10536 10538 10540 10542 10544 10546 10549 10551 10552 10553
10427 10428 10428 10429 10429 10429 10429 10428 10427 10428 10428 10429 10429 10430 10431 10432 10433 10434 10434 10434 10435 10435 10436 10438 10441 10443 10443 10443 10443 10445 10449 10453 10455 10456 10457 10458 10459 10459 10459 10460 10461 10464 10466 10471 10476 10479 10478 10478 10476 10476 10478 10480 10481 10483 10485 10487 10491 10494 10497 10499 10500 10502 10503 10505 10508 10509 10511 10512 10514 10515 10517 10518 10520 10523 10525 10527 10530 10532 10534 10536 10538 10541 10543 10544 10545
10419 10419 10419 10420 10420 10420 10420 10419 10418 10419 10419 10419 10420 10420 10421 10422 10423 10423 10423 10423 10425 10425 10426 10428 10430 10432 10433 10433 10434 10435 10438 10442 10445 10447 10448 10449 10450 10450 10450 10450 10451 10454 10457 10462 10467 10470 10471 10469 10464 10463 10467 10469 10470 10472 10473 10475 10479 10482 10486 10489 10490 10491 10493 10495 10497 10499 10500 10502 10503 10505 10507 10508 10510 10513 10516 10518 10521 10523 10525 10527 10529 10531 10534 10535 10536
10410 10410 10410 10410 10410 10411 10411 10410 10409 10409 10408 10409 10410 10411 10412 10412 10412 10413 10412 10412 10414 10414 10416 10417 10419 10420 10421 10422 10423 10424 10426 10430 10433 10436 10438 10440 10440 10440 10440 10440 10442 10445 10448 10452 10456 10459 10461 10458 10451 10451 10457 10459 10460 10461 10461 10463 10466 10469 10473 10477 10480 10481 10482 10484 10487 10488 10490 10492 10493 10495 10496 10498 10500 10503 10506 10508 10510 10513 10515 10517 10519 10521 10523 10525 10527
10401 10401 10401 10401 10401 10401 10401 10401 10401 10400 10398 10398 10399 10401 10401 10401 10402 10403 10402 10402 10403 10403 10404 10406 10408 10409 10410 10411 10412 10413 10414 10417 10420 10424 10427 10429 10430 10430 10430 10430 10432 10435 10438 10442 10446 10448 10448 10446 10443 10444 10447 10448 10448 10448 10448 10450 10452 10455 10460 10466 10468 10469 10471 10473 10475 10477 10479 10481 10482 10484 10485 10488 10490 10493 10495 10497 10499 10502 10504 10506 10508 10510 10512 10514 10516
10391 10391 10391 10391 10391 10391 10391 10391 10391 10391 10390 10389 10388 10389 10389 10391 10392 10392 10392 10392 10392 10392 10394 10395 10396 10398 10399 10401 10402 10403 10404 10406 10408 10412 10415 10417 10418 10419 10419 10420 10421 10423 10426 10430 10434 10437 10437 10435 10435 10437 10438 10436 10434 10435 10435 10436 10439 10444 10451 10455 10455 10456 10458 10460 10463 10465 10466 10468 10470 10472 10474 10478 10480 10482 10484 10486 10488 10490 10493 10495 10497 10498 10500 10503 10505
10380 10380 10380 10380 10380 10380 10381 10381 10381 10381 10380 10379 10379 10378 10378 10379 10380 10381 10381 10381 10381 10382 10383 10383 10384 10386 10388 10390 10392 10393 10394 10396 10397 10401 10404 10405 10407 10408 10408 10409 10410 10411 10414 10417 10422 10425 10426 10424 10425 10427 10428 10424 10423 10423 10423 10424 10429 10437 10442 10443 10443 10444 10445 10447 10449 10451 10452 10455 10458 10460 10463 10466 10469 10471 10473 10474 10476 10479 10482 10484 10485 10487 10488 10490 10493
10369 10369 10368 10368 10368 10369 10370 10370 10370 10369 10368 10368 10368 10368 10369 10369 10369 10369 10369 10369 10370 10371 10372 10372 10373 10374 10375 10378 10380 10382 10384 10386 10387 10390 10393 10394 10396 10396 10397 10398 10399 10400 10402 10405 10408 10411 10413 10413 10415 10416 10416 10413 10411 10411 10412 10416 10423 10429 10430 10430 10430 10431 10432 10434 10436 10437 10438 10441 10445 10447 10450 10453 10457 10459 10461 10463 10465 10468 10471 10473 10474 10475 10477 10479 10481
10356 10355 10355 10356 10357 10358 10359 10358 10357 10357 10356 10356 10356 10357 10358 10358 10358 10358 10358 10358 10360 10360 10360 10360 10361 10363 10364 10366 10368 10371 10373 10375 10377 10379 10382 10384 10385 10385 10386 10387 10388 10389 10391 10393 10395 10398 10399 10401 10403 10404 10404 10403 10402 10401 10404 10409 10415 10417 10416 10415 10416 10417 10419 10421 10421 10422 10424 10428 10431 10433 10435 10440 10444 10446 10448 10451 10453 10456 10459 10461 10462 10464 10465 10467 10469
10342 10342 10342 10344 10345 10345 10346 10346 10345 10344 10344 10344 10345 10346 10347 10347 10346 10346 10346 10347 10349 10349 10348 10349 10351 10352 10353 10355 10357 10360 10362 10364 10366 10368 10371 10372 10373 10374 10375 10376 10377 10378 10379 10380 10383 10385 10386 10388 10389 10391 10392 10392 10392 10391 10394 10400 10404 10403 10403 10403 10403 10404 10406 10407 10407 10409 10411 10414 10417 10419 10421 10425 10430 10433 10435 10437 10439 10443 10446 10449 10450 10452 10453 10455 10456
10328 10329 10330 10331 10332 10333 10333 10333 10332 10332 10331 10332 10333 10334 10335 10335 10335 10334 10334 10335 10336 10336 10336 10338 10340 10341 10342 10344 10347 10350 10352 10354 10355 10356 10358 10360 10361 10363 10364 10365 10366 10366 10367 10367 10369 10372 10373 10374 10376 10379 10379 10378 10378 10380 10384 10390 10393 10392 10392 10392 10392 10392 10393 10393 10394 10397 10399 10401 10403 10405 10406 10410 10415 10418 10420 10423 10425 10429 10433 10436 10437 10439 10440 10441 10441
10314 10316 10317 10318 10319 10320 10321 10321 10320 10319 10318 10319 10321 10322 10323 10324 10323 10322 10322 10323 10322 10322 10323 10326 10328 10330 10332 10334 10336 10338 10341 10343 10344 10346 10347 10349 10349 10351 10352 10353 10354 10355 10355 10355 10356 10358 10359 10360 10363 10366 10366 10366 10367 10370 10373 10377 10379 10379 10380 10380 10379 10379 10380 10381 10383 10385 10386 10387 10389 10390 10392 10395 10399 10402 10405 10407 10410 10414 10418 10421 10423 10425 10426 10427 10426
10302 10303 10304 10305 10305 10306 10307 10307 10307 10306 10305 10306 10308 10310 10311 10311 10311 10310 10311 10310 10309 10309 10312 10315 10317 10318 10321 10323 10324 10327 10330 10332 10333 10335 10336 10337 10338 10339 10340 10340 10341 10342 10343 10344 10345 10346 10346 10346 10348 10351 10353 10355 10357 10359 10360 10362 10364 10366 10367 10368 10367 10368 10369 10371 10372 10372 10373 10374 10375 10376 10378 10381 10384 10386 10388 10391 10395 10398 10402 10405 10407 10409 10411 10410 10411
10291 10292 10292 10292 10292 10292 10293 10293 10293 10292 10292 10293 10295 10297 10298 10299 10298 10299 10300 10298 10297 10299 10301 10304 10306 10308 10310 10311 10312 10315 10319 10321 10322 10323 10325 10326 10326 10327 10327 10328 10329 10330 10330 10332 10333 10334 10334 10334 10336 10338 10340 10343 10345 10346 10346 10347 10349 10352 10354 10355 10356 10357 10358 10359 10360 10360 10360 10360 10361 10362 10364 10367 10370 10371 10372 10375 10379 10382 10385 10389 10391 10393 10394 10395 10396
10279 10279 10279 10280 10280 10280 10281 10280 10280 10280 10281 10282 10283 10285 10286 10287 10288 10289 10288 10287 10287 10289 10291 10292 10295 10297 10299 10299 10301 10304 10307 10310 10311 10311 10313 10315 10315 10316 10316 10317 10318 10317 10317 10318 10320 10322 10323 10324 10325 10326 10328 10331 10333 10333 10333 10334 10336 10339 10341 10343 10344 10345 10347 10348 10348 10348 10348 10348 10349 10350 10351 10353 10356 10357 10358 10361 10364 10366 10370 10373 10375 10377 10379 10381 10382
10267 10267 10267 10268 10269 10270 10270 10269 10269 10270 10271 10271 10273 10275 10276 10277 10278 10277 10276 10276 10277 10278 10279 10281 10283 10286 10287 10288 10290 10292 10295 10298 10299 10300 10302 10304 10306 10306 10306 10307 10307 10306 10306 10307 10309 10311 10313 10314 10314 10314 10317 10320 10322 10321 10321 10322 10325 10327 10329 10332 10333 10334 10335 10336 10336 10336 10336 10336 10336 10337 10338 10340 10342 10344 10345 10347 10350 10352 10355 10358 10361 10363 10365 10367 10368
10255 10254 10255 10257 10259 10260 10260 10260 10260 10260 10260 10261 10263 10266 10267 10268 10268 10266 10265 10266 10267 10268 10269 10271 10274 10275 10276 10277 10280 10283 10285 10287 10288 10290 10292 10295 10296 10296 10296 10297 10298 10297 10297 10297 10299 10302 10303 10303 10304 10305 10307 10309 10310 10310 10310 10312 10315 10317 10318 10320 10322 10323 10324 10324 10324 10325 10324 10324 10325 10326 10327 10328 10330 10331 10333 10335 10337 10339 10342 10345 10348 10350 10352 10354 10355
10243 10243 10244 10245 10248 10249 10250 10250 10250 10250 10251 10252 10254 10257 10259 10259 10257 10255 10256 10256 10257 10258 10261 10263 10265 10266 10267 10267 10269 10272 10275 10276 10278 10280 10282 10285 10286 10286 10287 10288 10288 10288 10287 10288 10291 10293 10293 10292 10294 10296 10297 10298 10299 10300 10301 10303 10306 10308 10309 10309 10310 10311 10312 10313 10313 10314 10314 10314 10314 10315 10316 10317 10319 10320 10322 10324 10326 10328 10330 10333 10335 10337 10339 10341 10342
10231 10232 10233 10236 10238 10239 10240 10241 10241 10240 10241 10243 10246 10248 10249 10248 10246 10246 10247 10247 10247 10250 10253 10255 10256 10257 10257 10258 10259 10262 10265 10267 10267 10270 10273 10276 10276 10277 10277 10278 10278 10279 10279 10280 10281 10282 10282 10283 10285 10286 10287 10289 10290 10293 10294 10296 10298 10300 10300 10299 10299 10300 10301 10302 10302 10303 10303 10304 10305 10306 10307 10308 10309 10311 10312 10314 10316 10318 10319 10321 10323 10324 10326 10327 10329
10220 10221 10223 10226 10229 10231 10233 10233 10233 10231 10232 10234 10237 10238 10239 10238 10237 10237 10237 10238 10240 10244 10245 10246 10246 10247 10248 10249 10251 10254 10257 10257 10258 10261 10264 10266 10267 10267 10268 10269 10269 10271 10271 10272 10272 10273 10274 10275 10276 10277 10279 10281 10284 10286 10288 10289 10290 10290 10290 10290 10290 10290 10291 10292 10293 10294 10295 10296 10297 10298 10298 10299 10301 10302 10303 10304 10306 10307 10309 10310 10311 10312 10313 10315 10316
10212 10213 10214 10216 10219 10222 10222 10223 10224 10223 10223 10226 10228 10227 10227 10228 10228 10229 10230 10232 10235 10236 10236 10237 10238 10238 10239 10240 10243 10245 10247 10248 10250 10252 10254 10256 10258 10259 10259 10260 10262 10263 10264 10265 10265 10265 10265 10266 10267 10269 10271 10274 10277 10278 10280 10280 10281 10281 10281 10281 10281 10281 10282 10283 10284 10285 10286 10287 10288 10289 10290 10291 10292 10293 10294 10295 10296 10298 10299 10300 10300 10301 10302 10302 10303
10205 10205 10206 10208 10210 10211 10212 10213 10213 10213 10215 10217 10218 10217 10217 10219 10221 10222 10224 10226 10228 10227 10227 10228 10229 10229 10229 10231 10234 10237 10239 10240 10241 10243 10245 10248 10249 10250 10251 10253 10255 10257 10258 10258 10258 10258 10257 10258 10259 10261 10264 10267 10269 10270 10271 10272 10273 10273 10273 10273 10273 10273 10273 10274 10274 10275 10275 10277 10278 10279 10280 10281 10282 10284 10285 10286 10287 10288 10289 10289 10289 10290 10290 10290 10290
10196 10196 10197 10198 10200 10202 10203 10204 10204 10203 10205 10207 10208 10209 10210 10212 10214 10216 10217 10219 10220 10219 10219 10219 10220 10220 10221 10224 10227 10230 10232 10233 10233 10234 10237 10240 10241 10241 10244 10247 10249 10250 10250 10250 10249 10250 10250 10251 10252 10254 10257 10259 10261 10262 10263 10264 10265 10265 10265 10265 10265 10265 10265 10265 10265 10265 10266 10268 10268 10269 10270 10271 10273 10274 10275 10276 10277 10277 10278 10278 10278 10278 10279 10279 10281
10185 10186 10188 10189 10190 10192 10194 10195 10195 10194 10196 10198 10201 10202 10203 10204 10206 10208 10209 10211 10211 10211 10211 10212 10212 10213 10215 10218 10220 10222 10223 10224 10223 10225 10229 10231 10232 10234 10236 10239 10240 10242 10242 10242 10242 10243 10243 10243 10245 10247 10249 10251 10253 10254 10255 10256 10257 10258 10258 10258 10257 10256 10256 10256 10256 10257 10258 10259 10260 10260 10261 10262 10263 10264 10265 10266 10266 10267 10267 10267 10267 10268 10269 10271 10273